When you browse on this site, cookies collect data to enhance your experience and personalize the content and advertising you see.
Visit our Privacy Policy to learn more. By continuing to use the site, you agree to this use of cookies and data.

Hourly Weather Hatassy

Today, 2 July, Thursday

Time Temperature Precipitation Wind Pressure Humidity
00:00 +19°C° 0 mm 4 mps 747 mmHg 60%
01:00 +19°C° 0.1 mm 4 mps 746 mmHg 62%
02:00 +19°C° 0.1 mm 4 mps 746 mmHg 64%
03:00 +18°C° 0 mm 3 mps 746 mmHg 67%
04:00 +19°C° 0 mm 3 mps 746 mmHg 67%
05:00 +20°C° 0 mm 3 mps 745 mmHg 67%
06:00 +21°C° 0 mm 2 mps 745 mmHg 67%
07:00 +25°C° 0 mm 3 mps 744 mmHg 59%
08:00 +27°C° 0 mm 3 mps 744 mmHg 50%
09:00 +28°C° 0 mm 2 mps 744 mmHg 45%
10:00 +30°C° 0 mm 3 mps 743 mmHg 39%
11:00 +33°C° 0 mm 4 mps 743 mmHg 32%
12:00 +35°C° 0 mm 5 mps 742 mmHg 26%
13:00 +34°C° 0 mm 5 mps 742 mmHg 27%
14:00 +34°C° 0 mm 5 mps 741 mmHg 29%
15:00 +32°C° 0 mm 4 mps 741 mmHg 37%
16:00 +32°C° 0 mm 5 mps 741 mmHg 36%
17:00 +32°C° 0 mm 6 mps 741 mmHg 35%
18:00 +32°C° 0 mm 7 mps 741 mmHg 34%
19:00 +28°C° 0 mm 6 mps 741 mmHg 35%
20:00 +26°C° 0 mm 5 mps 741 mmHg 37%
21:00 +24°C° 0 mm 3 mps 741 mmHg 40%
22:00 +21°C° 0 mm 3 mps 741 mmHg 43%
23:00 +20°C° 0 mm 3 mps 741 mmHg 47%

Tomorrow, 3 July, Friday

Time Temperature Precipitation Wind Pressure Humidity
00:00 +19°C° 0 mm 3 mps 740 mmHg 50%
01:00 +18°C° 0 mm 3 mps 740 mmHg 54%
02:00 +18°C° 0 mm 3 mps 740 mmHg 57%
03:00 +17°C° 0 mm 3 mps 740 mmHg 60%
04:00 +18°C° 0 mm 4 mps 740 mmHg 56%
05:00 +19°C° 0 mm 4 mps 739 mmHg 52%
06:00 +20°C° 0 mm 5 mps 739 mmHg 48%
07:00 +21°C° 0 mm 6 mps 739 mmHg 45%
08:00 +22°C° 0 mm 6 mps 739 mmHg 42%
09:00 +23°C° 0 mm 7 mps 739 mmHg 39%
10:00 +23°C° 0 mm 7 mps 739 mmHg 38%
11:00 +24°C° 0 mm 7 mps 738 mmHg 37%
12:00 +24°C° 0 mm 6 mps 738 mmHg 37%
13:00 +24°C° 0 mm 6 mps 738 mmHg 38%
14:00 +24°C° 0 mm 6 mps 738 mmHg 39%
15:00 +23°C° 0 mm 6 mps 738 mmHg 40%
16:00 +23°C° 0.1 mm 6 mps 738 mmHg 44%
17:00 +22°C° 0.1 mm 6 mps 738 mmHg 47%
18:00 +21°C° 0.1 mm 6 mps 738 mmHg 51%
19:00 +20°C° 0 mm 5 mps 738 mmHg 54%
20:00 +19°C° 0 mm 5 mps 738 mmHg 56%
21:00 +19°C° 0 mm 4 mps 738 mmHg 59%
22:00 +18°C° 0 mm 4 mps 738 mmHg 62%
23:00 +17°C° 0 mm 4 mps 737 mmHg 64%

Day after tomorrow, 4 July, Saturday

Time Temperature Precipitation Wind Pressure Humidity
00:00 +15°C° 0 mm 4 mps 737 mmHg 67%
01:00 +14°C° 0 mm 4 mps 737 mmHg 69%
02:00 +14°C° 0 mm 4 mps 737 mmHg 71%
03:00 +13°C° 0 mm 3 mps 737 mmHg 73%
04:00 +14°C° 0 mm 4 mps 737 mmHg 71%
05:00 +14°C° 0 mm 4 mps 737 mmHg 70%
06:00 +15°C° 0 mm 4 mps 737 mmHg 69%
07:00 +17°C° 0 mm 4 mps 737 mmHg 66%
08:00 +18°C° 0 mm 4 mps 737 mmHg 62%
09:00 +19°C° 0 mm 4 mps 737 mmHg 59%
10:00 +19°C° 0.1 mm 4 mps 737 mmHg 57%
11:00 +20°C° 0.1 mm 4 mps 736 mmHg 55%
12:00 +20°C° 0.1 mm 3 mps 736 mmHg 53%
13:00 +21°C° 0 mm 3 mps 736 mmHg 50%
14:00 +21°C° 0 mm 3 mps 736 mmHg 47%
15:00 +22°C° 0 mm 3 mps 736 mmHg 44%
16:00 +20°C° 0.1 mm 3 mps 736 mmHg 52%
17:00 +19°C° 0.1 mm 3 mps 736 mmHg 60%
18:00 +17°C° 0.1 mm 3 mps 736 mmHg 68%
19:00 +17°C° 0.1 mm 3 mps 736 mmHg 71%
20:00 +16°C° 0.1 mm 2 mps 737 mmHg 74%
21:00 +16°C° 0.1 mm 2 mps 737 mmHg 76%
22:00 +14°C° 0.1 mm 3 mps 737 mmHg 75%
23:00 +14°C° 0.1 mm 3 mps 737 mmHg 74%

5 July, Sunday

Time Temperature Precipitation Wind Pressure Humidity
00:00 +14°C° 0.1 mm 4 mps 737 mmHg 73%
01:00 +14°C° 0.2 mm 4 mps 737 mmHg 75%
02:00 +13°C° 0.2 mm 4 mps 738 mmHg 77%
03:00 +13°C° 0.2 mm 3 mps 738 mmHg 78%
04:00 +13°C° 0.1 mm 3 mps 738 mmHg 77%
05:00 +14°C° 0.1 mm 2 mps 738 mmHg 75%
06:00 +14°C° 0.1 mm 1 mps 738 mmHg 74%
07:00 +15°C° 0 mm 1 mps 738 mmHg 69%
08:00 +16°C° 0 mm 1 mps 738 mmHg 64%
09:00 +18°C° 0 mm 1 mps 738 mmHg 59%
10:00 +19°C° 0.3 mm 1 mps 738 mmHg 58%
11:00 +20°C° 0.3 mm 1 mps 738 mmHg 57%
12:00 +21°C° 0.3 mm 1 mps 738 mmHg 55%
13:00 +21°C° 0.1 mm 1 mps 738 mmHg 54%
14:00 +21°C° 0.1 mm 1 mps 738 mmHg 52%
15:00 +21°C° 0.1 mm 1 mps 739 mmHg 50%
16:00 +21°C° 0.1 mm 1 mps 739 mmHg 52%
17:00 +19°C° 0.1 mm 2 mps 739 mmHg 53%
18:00 +19°C° 0.1 mm 2 mps 739 mmHg 54%
19:00 +18°C° 0 mm 2 mps 739 mmHg 54%
20:00 +17°C° 0 mm 2 mps 739 mmHg 55%
21:00 +16°C° 0 mm 3 mps 739 mmHg 55%
22:00 +15°C° 0 mm 2 mps 740 mmHg 58%
23:00 +14°C° 0 mm 2 mps 740 mmHg 61%

6 July, Monday

Time Temperature Precipitation Wind Pressure Humidity
00:00 +14°C° 0 mm 1 mps 740 mmHg 63%
01:00 +13°C° 0 mm 1 mps 740 mmHg 66%
02:00 +12°C° 0 mm 1 mps 741 mmHg 68%
03:00 +12°C° 0 mm 1 mps 741 mmHg 71%
04:00 +12°C° 0 mm 1 mps 741 mmHg 69%
05:00 +13°C° 0 mm 1 mps 741 mmHg 67%
06:00 +14°C° 0 mm 1 mps 741 mmHg 65%
07:00 +15°C° 0 mm 1 mps 741 mmHg 57%
08:00 +18°C° 0 mm 1 mps 742 mmHg 50%
09:00 +19°C° 0 mm 2 mps 742 mmHg 43%
10:00 +19°C° 0 mm 2 mps 742 mmHg 42%
11:00 +19°C° 0 mm 2 mps 742 mmHg 41%
12:00 +19°C° 0 mm 2 mps 742 mmHg 40%
13:00 +20°C° 0 mm 2 mps 742 mmHg 39%
14:00 +20°C° 0 mm 2 mps 742 mmHg 38%
15:00 +21°C° 0 mm 2 mps 742 mmHg 37%
16:00 +20°C° 0 mm 2 mps 742 mmHg 38%
17:00 +21°C° 0 mm 1 mps 742 mmHg 39%
18:00 +21°C° 0 mm 1 mps 743 mmHg 39%
19:00 +20°C° 0 mm 1 mps 743 mmHg 45%
20:00 +18°C° 0 mm 1 mps 743 mmHg 51%
21:00 +16°C° 0 mm 1 mps 743 mmHg 56%
22:00 +14°C° 0 mm 1 mps 743 mmHg 62%
23:00 +13°C° 0 mm 1 mps 744 mmHg 69%

7 July, Tuesday

Time Temperature Precipitation Wind Pressure Humidity
00:00 +11°C° 0 mm 1 mps 744 mmHg 75%
01:00 +9°C° 0 mm 0 mps 744 mmHg 78%
02:00 +8°C° 0 mm 0 mps 744 mmHg 81%
03:00 +8°C° 0 mm 0 mps 744 mmHg 84%
04:00 +10°C° 0 mm 0 mps 744 mmHg 77%
05:00 +12°C° 0 mm 0 mps 745 mmHg 70%
06:00 +13°C° 0 mm 0 mps 745 mmHg 64%
07:00 +15°C° 0 mm 0 mps 745 mmHg 57%
08:00 +17°C° 0 mm 0 mps 745 mmHg 51%
09:00 +19°C° 0 mm 0 mps 745 mmHg 45%
10:00 +20°C° 0 mm 0 mps 744 mmHg 41%
11:00 +21°C° 0 mm 0 mps 744 mmHg 38%
12:00 +22°C° 0 mm 0 mps 744 mmHg 34%
13:00 +23°C° 0 mm 1 mps 743 mmHg 36%
14:00 +23°C° 0 mm 1 mps 743 mmHg 37%
15:00 +23°C° 0 mm 2 mps 743 mmHg 39%
16:00 +22°C° 0 mm 1 mps 743 mmHg 40%
17:00 +22°C° 0 mm 1 mps 743 mmHg 41%
18:00 +22°C° 0 mm 1 mps 743 mmHg 41%
19:00 +20°C° 0 mm 1 mps 743 mmHg 47%
20:00 +18°C° 0 mm 2 mps 743 mmHg 52%
21:00 +16°C° 0 mm 3 mps 743 mmHg 58%
22:00 +15°C° 0 mm 2 mps 743 mmHg 65%
23:00 +13°C° 0 mm 1 mps 743 mmHg 71%
Show more